{"data":{"norad_id":66173,"intl_designator":"2025-240AD","name":"STARLINK-35634","alt_names":[],"object_type":"PAYLOAD","status":"ACTIVE","operator":null,"country":"US","launch_date":"2025-10-25","launch_site_code":"AFWTR","launch_vehicle":null,"mission":null,"orbit_class":"UNKNOWN","rcs_meters":null,"size_class":null,"mass_kg":null,"dimensions":null,"purposes":["comms"],"wikipedia_slug":null,"has_3d_model":false,"image_url":null,"decayed_at":null,"tle_current":{"epoch":"2026-05-25T04:56:02.195808Z","epoch_age_seconds":58060,"freshness":"FRESH","line1":"1 66173U 25240AD  26145.20558097  .00027081  00000+0  80955-3 0  9997","line2":"2 66173  53.1587  66.6635 0001166 101.1611 258.9522 15.34407014 33717","mean_motion":15.34407014,"eccentricity":0.0001166,"inclination_deg":53.1587,"raan_deg":66.6635,"arg_perigee_deg":101.1611,"mean_anomaly_deg":258.9522,"bstar":0.00080955,"rev_number":3371,"period_min":93.847329089438,"perigee_km":461.88475365914,"apogee_km":463.48003274163,"semimajor_km":6840.8193932004,"source":"CELESTRAK","updated_at":"2026-05-25T13:38:21.074717Z"}}}